Angel Fire, NM

3:18 AM MDT on March 30, 2017 (GMT -0600)
Angel Fire

Weather History for KAXX - December, 2012

Change the Weather History Date:

Thursday, December 6, 2012

  Actual Average (KSKX) Record (KSKX)
Temperature  
Mean Temperature 38 °F -  
Max Temperature 50 °F 39 °F 57 °F (2008)
Min Temperature 25 °F 11 °F -2 °F (2005)
Degree Days  
Heating Degree Days 28    
Moisture  
Dew Point 19 °F    
Average Humidity 39    
Maximum Humidity 59    
Minimum Humidity 30    
Precipitation  
Precipitation 0.00 in - - ()
Sea Level Pressure  
Sea Level Pressure 30.04 in    
Wind  
Wind Speed 11 mph (WSW)    
Max Wind Speed 18 mph    
Max Gust Speed 28 mph    
Visibility 10 miles    
Events      
Averages and records for this station are not official NWS values.
T = Trace of Precipitation, MM = Missing Value Source: NWS Daily Summary

Daily Weather History Graph

Daily Weather History Graph

Search for Another Location

Airport or City:

Trip Planner

Search our weather history database for the weather conditions in past years. The results will help you decide how hot, cold, wet, or windy it might be!

Date:

Astronomy

Dec. 06, 2012 Rise Set
Actual Time 6:59 AM MST 4:45 PM MST
Civil Twilight 6:30 AM MST 5:14 PM MST
Nautical Twilight 5:58 AM MST 5:46 PM MST
Astronomical Twilight 5:27 AM MST 6:17 PM MST
Moon No Moon Rise 12:02 PM MST (12/6)
Length of Visible Light 10h 43m
Length of Day
9h 46m
Waning Gibbous, 48% of the Moon is Illuminated
Dec 6
Waning Gibbous
Dec 13
New
Dec 19
First Quarter
Dec 28
Full
Jan 4
Last Quarter

Hourly Weather History & Observations

Time (MST) Temp. Windchill Dew Point Humidity Pressure Visibility Wind Dir Wind Speed Gust Speed Precip Events Conditions
12:15 AM 42.8 °F 34.5 °F 14.9 °F 32% 30.09 in 10.0 mi West 18.4 mph 24.2 mph N/A   Clear
12:35 AM 42.1 °F 34.2 °F 15.6 °F 34% 30.08 in 10.0 mi West 16.1 mph 23.0 mph N/A   Clear
12:55 AM 41.9 °F 34.6 °F 15.6 °F 35% 30.08 in 10.0 mi West 13.8 mph - N/A   Clear
1:15 AM 41.7 °F 33.7 °F 14.9 °F 34% 30.08 in 10.0 mi West 16.1 mph 20.7 mph N/A   Clear
1:35 AM 41.5 °F 33.5 °F 15.3 °F 35% 30.08 in 10.0 mi West 16.1 mph 20.7 mph N/A   Clear
1:55 AM 42.3 °F 34.4 °F 14.2 °F 32% 30.08 in 10.0 mi West 16.1 mph 24.2 mph N/A   Clear
2:15 AM 41.2 °F 34.5 °F 13.5 °F 32% 30.08 in 10.0 mi West 11.5 mph 17.3 mph N/A   Clear
2:35 AM 41.9 °F 36.9 °F 12.4 °F 30% 30.08 in 10.0 mi West 8.1 mph - N/A   Clear
2:55 AM 40.6 °F 36.0 °F 13.1 °F 33% 30.08 in 10.0 mi WNW 6.9 mph - N/A   Clear
6:35 AM 25.9 °F - 13.5 °F 59% 30.07 in 10.0 mi Calm Calm - N/A   Clear
7:55 AM 38.8 °F 34.6 °F 14.9 °F 38% 30.07 in 10.0 mi South 5.8 mph - N/A   Clear
8:15 AM 41.4 °F 38.4 °F 14.4 °F 33% 30.08 in 10.0 mi SSE 4.6 mph - N/A   Clear
8:35 AM 38.1 °F 33.7 °F 15.8 °F 40% 30.09 in 10.0 mi SSE 5.8 mph - N/A   Clear
8:55 AM 37.2 °F 34.7 °F 15.8 °F 42% 30.09 in 10.0 mi South 3.5 mph - N/A   Clear
9:15 AM 39.6 °F - 15.8 °F 38% 30.09 in 10.0 mi Calm Calm - N/A   Clear
9:35 AM 42.6 °F - 15.8 °F 34% 30.10 in 10.0 mi Calm Calm - N/A   Clear
9:55 AM 45.3 °F 44.0 °F 16.0 °F 31% 30.10 in 10.0 mi SSE 3.5 mph - N/A   Clear
10:15 AM 46.8 °F - 17.1 °F 31% 30.09 in 10.0 mi SE 4.6 mph - N/A   Clear
11:15 AM 50.4 °F - 20.5 °F 31% 30.05 in 10.0 mi WSW 10.4 mph - N/A   Clear
11:35 AM 49.5 °F - 20.5 °F 32% 30.04 in 10.0 mi WSW 13.8 mph 17.3 mph N/A   Clear
11:55 AM 50.4 °F - 21.4 °F 32% 30.03 in 10.0 mi SW 18.4 mph 27.6 mph N/A   Clear
12:35 PM 49.8 °F - 21.4 °F 33% 30.02 in 10.0 mi WSW 15.0 mph 24.2 mph N/A   Clear
12:55 PM 50.4 °F - 21.4 °F 32% 30.02 in 10.0 mi West 17.3 mph 21.9 mph N/A   Clear
1:15 PM 50.0 °F - 20.5 °F 31% 30.01 in 10.0 mi WSW 17.3 mph 24.2 mph N/A   Clear
1:35 PM 50.2 °F - 19.8 °F 30% 30.00 in 10.0 mi West 15.0 mph 21.9 mph N/A   Clear
1:55 PM 49.6 °F - 19.9 °F 31% 29.99 in 10.0 mi West 15.0 mph 24.2 mph N/A   Clear
2:15 PM 48.6 °F - 19.0 °F 31% 29.99 in 10.0 mi West 17.3 mph 23.0 mph N/A   Clear
2:35 PM 47.3 °F - 18.9 °F 32% 30.00 in 10.0 mi West 16.1 mph - N/A   Clear
2:55 PM 47.7 °F - 18.9 °F 32% 30.00 in 10.0 mi West 12.7 mph - N/A   Clear
3:35 PM 45.3 °F 42.3 °F 18.1 °F 34% 30.00 in 10.0 mi WSW 5.8 mph - N/A   Clear
4:55 PM 40.8 °F 35.6 °F 17.4 °F 39% 30.00 in 10.0 mi SSW 8.1 mph - N/A   Clear
5:15 PM 40.3 °F 34.4 °F 17.8 °F 40% 29.99 in 10.0 mi SSW 9.2 mph - N/A   Clear
5:35 PM 39.7 °F 34.3 °F 18.3 °F 42% 29.99 in 10.0 mi SSW 8.1 mph - N/A   Clear
5:55 PM 36.0 °F 31.1 °F 18.0 °F 48% 30.00 in 10.0 mi SW 5.8 mph - N/A   Clear
6:35 PM 41.4 °F 37.6 °F 19.6 °F 42% 30.00 in 10.0 mi SW 5.8 mph - N/A   Clear
7:35 PM 42.4 °F 37.0 °F 21.9 °F 44% 30.01 in 10.0 mi WSW 9.2 mph 19.6 mph N/A   Scattered Clouds
7:55 PM 42.4 °F 37.5 °F 22.1 °F 44% 30.01 in 10.0 mi WSW 8.1 mph 20.7 mph N/A   Scattered Clouds
8:15 PM 41.9 °F 35.4 °F 22.6 °F 46% 30.01 in 10.0 mi WSW 11.5 mph 18.4 mph N/A   Scattered Clouds
8:35 PM 41.0 °F 36.4 °F 22.5 °F 48% 30.01 in 10.0 mi WSW 6.9 mph - N/A   Scattered Clouds
8:55 PM 40.5 °F 37.3 °F 22.5 °F 49% 30.01 in 10.0 mi SW 4.6 mph - N/A   Mostly Cloudy
9:15 PM 40.6 °F 37.5 °F 22.5 °F 48% 30.01 in 10.0 mi WSW 4.6 mph - N/A   Mostly Cloudy
9:35 PM 40.1 °F 35.3 °F 22.5 °F 49% 30.01 in 10.0 mi WSW 6.9 mph - N/A   Scattered Clouds
9:55 PM 40.8 °F 35.0 °F 22.1 °F 47% 30.01 in 10.0 mi WSW 9.2 mph - N/A   Scattered Clouds
10:15 PM 40.3 °F 35.5 °F 22.1 °F 48% 30.01 in 10.0 mi WSW 6.9 mph - N/A   Scattered Clouds
10:35 PM 40.1 °F 34.1 °F 22.8 °F 50% 30.02 in 10.0 mi WSW 9.2 mph - N/A   Overcast
10:55 PM 39.6 °F 34.7 °F 22.8 °F 51% 30.01 in 10.0 mi South 6.9 mph - N/A   Mostly Cloudy
11:15 PM 38.1 °F 34.6 °F 23.0 °F 55% 30.00 in 10.0 mi SSW 4.6 mph - N/A   Scattered Clouds
11:35 PM 38.1 °F 35.7 °F 22.8 °F 54% 30.00 in 10.0 mi SSW 3.5 mph - N/A   Clear
11:55 PM 37.0 °F 34.5 °F 22.8 °F 56% 30.00 in 10.0 mi WSW 3.5 mph - N/A   Mostly Cloudy